Location: Newark
(25.1987°N, 100.3705°W)
Time: 04:51:53
(UTC+00:00)

LightSail 2 - Pass Details

Date: 17 April 2020
Orbit: 695 x 719 km, 24.0° (Epoch: 28 May)

Event Time Altitude Azimuth Distance (km) Brightness Sun altitude
Exits shadow 09:26:16 11° 109° (ESE) 2,073 7.8 -36.1°
Drops below altitude 10° 09:26:30 10° 109° (ESE) 2,159 8.0 -36.0°
Sets 09:28:56 0° 106° (ESE) 3,072 8.9 -35.6°
